Location: *
(2.5500°S, 65.9667°W)
Time: 10:45:19
(UTC+00:00)

Cosmos 1607 - Pass Details

Date: 26 October 2021
Orbit: 917 x 985 km, 65.0° (Epoch: 28 November)

Event Time Altitude Azimuth Distance (km) Brightness Sun altitude
Rises 22:31:50 0° 336° (NNW) 3,568 7.1 -5.3°
Reaches altitude 10° 22:34:21 10° 336° (NNW) 2,620 6.4 -5.9°
Maximum altitude 22:40:27 81° 249° (WSW) 934 4.1 -7.4°
Drops below altitude 10° 22:46:32 10° 162° (SSE) 2,610 6.2 -8.9°
Sets 22:49:03 0° 160° (SSE) 3,554 6.9 -9.5°
